This is the latest recevied weather packets stored in our database for station/object N4NVD-13. If no packets are shown the sender has not sent any weather packets the latest 10 day(s).
| Time | Temp. | Humidity | Pressure | Rain* | Wind** | Luminosity | Snow |
|---|---|---|---|---|---|---|---|
| 1777655149 | 15.56° C | 99% | 1009.1 hPa | 0 mm | - | 544 W/m² | - |
| 1777654846 | 15° C | 99% | 1010 hPa | 0 mm | - | 262 W/m² | - |
| 1777654544 | 14.44° C | 99% | 1009.1 hPa | 0 mm | - | 146 W/m² | - |
| 1777654241 | 14.44° C | 99% | 1012.1 hPa | 0 mm | - | 67 W/m² | - |
| 1777653939 | 14.44° C | 99% | 1013 hPa | 0 mm | - | 49 W/m² | - |
| 1777653635 | 14.44° C | 99% | 1013.2 hPa | 0 mm | - | 34 W/m² | - |
| 1777653332 | 14.44° C | 99% | 1013 hPa | 0 mm | - | 46 W/m² | - |
| 1777653029 | 14.44° C | 99% | 1013.2 hPa | 0 mm | - | 45 W/m² | - |
| 1777652725 | 14.44° C | 99% | 1013.3 hPa | 0 mm | - | 40 W/m² | - |
| 1777652422 | 14.44° C | 99% | 1013.4 hPa | 0 mm | - | 34 W/m² | - |
| 1777652119 | 14.44° C | 99% | 1013.2 hPa | 0 mm | - | 29 W/m² | - |
| 1777651816 | 14.44° C | 99% | 1012.6 hPa | 0 mm | - | 37 W/m² | - |
| 1777651513 | 14.44° C | 99% | 1012.5 hPa | 0 mm | - | 39 W/m² | - |
| 1777651210 | 14.44° C | 99% | 1012.3 hPa | 0 mm | - | 48 W/m² | - |
| 1777650906 | 14.44° C | 99% | 1011.9 hPa | 0 mm | - | 64 W/m² | - |
| 1777650603 | 14.44° C | 99% | 1011.6 hPa | 0 mm | - | 87 W/m² | - |
| 1777650301 | 15° C | 99% | 1011.5 hPa | 0 mm | - | 126 W/m² | - |
| 1777649998 | 14.44° C | 99% | 1011.5 hPa | 0 mm | - | 149 W/m² | - |
| 1777649695 | 15° C | 99% | 1011.5 hPa | 0 mm | - | 153 W/m² | - |
| 1777649391 | 15° C | 99% | 1012.2 hPa | 0 mm | - | 177 W/m² | - |
| 1777649089 | 15° C | 99% | 1012.6 hPa | 0 mm | - | 171 W/m² | - |
| 1777648786 | 15° C | 99% | 1013 hPa | 0 mm | - | 185 W/m² | - |
| 1777648483 | 15° C | 99% | 1013.4 hPa | 0 mm | - | 137 W/m² | - |
| 1777648179 | 15° C | 99% | 1013.9 hPa | 0 mm | - | 77 W/m² | - |
| 1777647874 | 15° C | 99% | 1013.9 hPa | 0 mm | - | 55 W/m² | - |
* Rain latest hour (hover to see other rain measurements)
** Current wind speed in m/s (hover to see current wind gust speed)